GW6637 Weather Reports


time (UTC)temp
F
wind
direction
speed
knots
gust
knots
rain 1hr
in
rain 24hr
in
rain mn
in
humidity
%
barometer
mb
20260906120807 73 127 0.0 0.0 0.00 0.00 0.00 79 1015.4
20260906120302 73 147 0.9 0.9 0.00 0.00 0.00 80 1015.3
20260906115758 73 133 0.0 0.0 0.00 0.00 0.00 81 1015.0
20260906115253 73 99 0.0 0.0 0.00 0.00 0.00 83 1015.0
20260906114753 73 99 0.0 0.0 0.00 0.00 0.00 83 1015.1
20260906114248 73 101 0.9 0.9 0.00 0.00 0.00 83 1015.1
20260906113744 73 132 0.9 0.9 0.00 0.00 0.00 83 1014.9
20260906113243 73 113 0.0 0.0 0.00 0.00 0.00 83 1014.7
20260906112742 73 95 2.6 3.5 0.00 0.00 0.00 83 1014.8
20260906112239 73 136 0.0 0.0 0.00 0.00 0.00 83 1014.8
20260906111738 73 136 0.9 0.9 0.00 0.00 0.00 83 1014.7
20260906111233 72 124 0.0 0.0 0.00 0.00 0.00 83 1014.8
20260906110728 72 109 0.0 0.0 0.00 0.00 0.00 83 1014.6
20260906110224 72 109 0.0 0.0 0.00 0.00 0.00 83 1014.6
20260906105722 72 109 0.0 0.0 0.00 0.00 0.00 83 1014.5
20260906105219 72 109 0.0 0.9 0.00 0.00 0.00 84 1014.6
20260906104719 72 109 0.0 0.0 0.00 0.00 0.00 84 1014.6
20260906104218 73 144 0.0 0.0 0.00 0.00 0.00 83 1014.5
20260906103715 73 145 0.0 0.0 0.00 0.00 0.00 82 1014.6
20260906103210 73 145 0.0 0.0 0.00 0.00 0.00 82 1014.6
20260906102706 72 145 0.0 0.0 0.00 0.00 0.00 83 1014.6
20260906102206 73 127 0.0 0.9 0.00 0.00 0.00 83 1014.4
20260906101705 73 127 0.0 0.0 0.00 0.00 0.00 83 1014.2
20260906101200 73 127 0.0 0.0 0.00 0.00 0.00 83 1014.4
20260906100656 72 127 0.0 0.0 0.00 0.00 0.00 83 1014.5
20260906100156 73 127 0.0 0.0 0.00 0.00 0.00 83 1014.3
20260906095651 73 127 0.0 0.0 0.00 0.00 0.00 82 1014.5
20260906095146 73 127 0.0 0.0 0.00 0.00 0.00 82 1014.4
20260906094645 72 144 0.0 0.9 0.00 0.00 0.00 83 1014.4
20260906094141 72 150 0.0 0.9 0.00 0.00 0.00 83 1014.3
20260906093637 72 130 0.9 0.9 0.00 0.00 0.00 84 1014.2
20260906093137 72 123 0.0 0.0 0.00 0.00 0.00 83 1014.0
20260906092632 72 116 0.0 0.0 0.00 0.00 0.00 83 1014.2
20260906092132 72 116 0.0 0.0 0.00 0.00 0.00 82 1014.2
20260906091629 72 116 0.0 0.0 0.00 0.00 0.00 82 1014.3
20260906091126 72 116 0.0 0.0 0.00 0.00 0.00 83 1014.2
20260906090621 72 116 0.0 0.0 0.00 0.00 0.00 83 1013.9
20260906090120 72 116 0.0 0.0 0.00 0.00 0.00 83 1014.0
20260906085619 71 116 0.0 0.0 0.00 0.00 0.00 82 1013.8
20260906085114 71 116 0.0 0.0 0.00 0.00 0.00 83 1013.9
20260906084608 71 116 0.0 0.0 0.00 0.00 0.00 82 1013.8
20260906084107 72 116 0.0 0.0 0.00 0.00 0.00 82 1013.8
20260906083603 72 115 0.0 0.0 0.00 0.00 0.00 83 1013.9
20260906083103 71 115 0.0 0.9 0.00 0.00 0.00 83 1013.8
20260906082558 71 115 0.0 0.9 0.00 0.00 0.00 84 1013.6
20260906082054 71 115 0.0 0.0 0.00 0.00 0.00 84 1013.6
20260906081550 71 115 0.0 0.0 0.00 0.00 0.00 84 1013.3
20260906081045 71 115 0.0 0.0 0.00 0.00 0.00 84 1013.3
20260906080541 71 115 0.0 0.0 0.00 0.00 0.00 85 1013.5
20260906080038 71 115 0.0 0.0 0.00 0.00 0.00 85 1013.8
20260906075537 71 115 0.0 0.0 0.00 0.00 0.00 85 1013.5
20260906075031 71 115 0.0 0.0 0.00 0.00 0.00 85 1013.2
20260906074526 71 115 0.0 0.0 0.00 0.00 0.00 85 1013.5
20260906074020 70 115 0.0 0.0 0.00 0.00 0.00 85 1013.5
20260906073514 70 115 0.0 0.0 0.00 0.00 0.00 86 1013.3
20260906073010 70 115 0.0 0.0 0.00 0.00 0.00 86 1013.3
20260906072506 70 115 0.0 0.0 0.00 0.00 0.00 86 1013.5
20260906072002 70 115 0.0 0.0 0.00 0.00 0.00 86 1013.5
20260906071458 70 115 0.0 0.0 0.00 0.00 0.00 86 1013.5
20260906070952 69 115 0.0 0.0 0.00 0.00 0.00 87 1013.7
20260906070448 69 115 0.0 0.0 0.00 0.00 0.00 86 1013.7
20260906065944 70 115 0.0 0.0 0.00 0.00 0.00 86 1013.6
20260906065438 70 115 0.0 0.0 0.00 0.00 0.00 86 1013.9
20260906064933 70 115 0.0 0.0 0.00 0.00 0.00 86 1013.7
20260906064429 70 115 0.0 0.0 0.00 0.00 0.00 86 1013.8
20260906063924 69 115 0.0 0.0 0.00 0.00 0.00 86 1013.8
20260906063419 70 115 0.0 0.0 0.00 0.00 0.00 86 1013.9
20260906062914 70 115 0.0 0.0 0.00 0.00 0.00 86 1013.8
20260906062414 70 115 0.0 0.0 0.00 0.00 0.00 85 1013.9
20260906061909 70 115 0.0 0.0 0.00 0.00 0.00 85 1014.0
20260906061406 70 115 0.0 0.0 0.00 0.00 0.00 85 1013.9
20260906060900 70 115 0.0 0.0 0.00 0.00 0.00 84 1014.1
20260906060358 70 115 0.0 0.0 0.00 0.00 0.00 84 1014.0
20260906055853 70 115 0.0 0.0 0.00 0.00 0.00 83 1014.1
20260906055349 71 115 0.0 0.0 0.00 0.00 0.00 83 1014.1
20260906054844 71 115 0.0 0.0 0.00 0.00 0.00 82 1014.0
20260906054338 71 115 0.0 0.0 0.00 0.00 0.00 82 1014.1
20260906053835 71 115 0.0 0.0 0.00 0.00 0.00 82 1014.0
20260906053331 71 115 0.0 0.0 0.00 0.00 0.00 82 1014.2
20260906052826 71 115 0.0 0.0 0.00 0.00 0.00 82 1014.0
20260906052322 71 115 0.0 0.0 0.00 0.00 0.00 82 1014.0
20260906051819 71 115 0.0 0.0 0.00 0.00 0.00 82 1014.1
20260906051318 71 115 0.0 0.0 0.00 0.00 0.00 81 1014.0
20260906050814 71 115 0.0 0.0 0.00 0.00 0.00 80 1013.9
20260906050309 72 115 0.0 0.0 0.00 0.00 0.00 80 1013.7
20260906045808 71 115 0.9 0.9 0.00 0.00 0.00 80 1013.9
20260906045305 72 116 0.0 0.0 0.00 0.00 0.00 80 1013.8
20260906044759 72 115 0.0 0.0 0.00 0.00 0.00 79 1013.9
20260906044253 72 115 0.0 0.0 0.00 0.00 0.00 79 1013.8
20260906043749 72 115 0.0 0.0 0.00 0.00 0.00 79 1013.9
20260906043245 72 115 0.0 0.0 0.00 0.00 0.00 78 1014.0
20260906042745 73 115 0.0 0.0 0.00 0.00 0.00 78 1014.0
20260906042244 73 115 0.0 0.0 0.00 0.00 0.00 78 1013.9
20260906041739 72 115 0.0 0.0 0.00 0.00 0.00 78 1013.9
20260906041234 73 115 0.0 0.0 0.00 0.00 0.00 77 1013.9
20260906040730 73 115 0.0 0.0 0.00 0.00 0.00 76 1014.0
20260906040225 73 114 0.0 0.0 0.00 0.00 0.00 76 1014.0
20260906035721 73 155 0.0 0.0 0.00 0.00 0.00 76 1014.2
20260906035216 73 155 0.0 0.0 0.00 0.00 0.00 76 1014.2
20260906034716 73 155 0.0 0.0 0.00 0.00 0.00 75 1014.2
20260906034211 74 155 0.0 0.0 0.00 0.00 0.00 74 1014.0
20260906033707 74 155 0.0 0.0 0.00 0.00 0.00 74 1014.1
20260906033206 75 155 0.0 0.0 0.00 0.00 0.00 74 1014.1
20260906032703 75 155 0.0 0.0 0.00 0.00 0.00 72 1014.2
20260906032158 75 156 0.0 0.0 0.00 0.00 0.00 73 1014.1
20260906031653 75 156 0.0 0.0 0.00 0.00 0.00 71 1014.2
20260906031148 75 156 0.0 0.0 0.00 0.00 0.00 71 1013.8
20260906030648 75 156 0.0 0.9 0.00 0.00 0.00 71 1014.0
20260906030143 75 155 0.0 0.0 0.00 0.00 0.00 71 1014.3
20260906025642 76 155 0.0 0.0 0.00 0.00 0.00 70 1014.1
20260906025142 76 155 0.0 0.0 0.00 0.00 0.00 69 1014.0
20260906024637 76 155 0.0 0.0 0.00 0.00 0.00 68 1013.7
20260906024136 76 155 0.0 0.0 0.00 0.00 0.00 68 1013.9
20260906023632 76 155 0.0 0.0 0.00 0.00 0.00 68 1013.8
20260906023132 76 155 0.0 0.0 0.00 0.00 0.00 68 1013.8
20260906022627 77 155 0.0 0.0 0.00 0.00 0.00 67 1013.9
20260906022123 77 156 0.0 0.0 0.00 0.00 0.00 66 1013.8
20260906021619 78 156 0.0 0.0 0.00 0.00 0.00 65 1013.7
20260906021117 78 156 0.0 0.0 0.00 0.00 0.00 64 1013.5
20260906020617 78 157 0.0 0.0 0.00 0.00 0.00 63 1013.7
20260906020112 78 157 0.0 0.9 0.00 0.00 0.00 63 1013.3
20260906015606 78 92 0.0 0.0 0.00 0.00 0.00 63 1013.5
20260906015105 78 92 0.9 0.9 0.00 0.00 0.00 63 1013.3
20260906014600 79 92 0.0 0.0 0.00 0.00 0.00 62 1013.2
20260906014056 79 96 0.0 0.0 0.00 0.00 0.00 62 1013.3
20260906013551 79 96 0.0 0.0 0.00 0.00 0.00 62 1013.0
20260906013046 80 96 0.0 0.0 0.00 0.00 0.00 62 1013.0
20260906012541 80 96 0.0 0.0 0.00 0.00 0.00 61 1013.1
20260906012041 81 97 0.9 0.9 0.00 0.00 0.00 60 1013.1
20260906011537 81 97 0.0 0.0 0.00 0.00 0.00 60 1012.9
20260906011036 81 99 0.0 0.0 0.00 0.00 0.00 60 1012.8
20260906010532 82 98 0.0 0.9 0.00 0.00 0.00 56 1012.8
20260906010028 82 99 0.0 0.0 0.00 0.00 0.00 55 1012.9
20260906005527 82 99 0.0 0.0 0.00 0.00 0.00 55 1012.9
20260906005027 82 99 0.0 0.0 0.00 0.00 0.00 54 1012.9
20260906004526 82 99 0.0 0.0 0.00 0.00 0.00 54 1012.9
20260906004021 82 79 0.9 0.9 0.00 0.00 0.00 53 1012.5
20260906003517 82 118 0.0 0.0 0.00 0.00 0.00 53 1012.6
20260906003013 83 118 0.0 0.0 0.00 0.00 0.00 53 1012.8
20260906002513 83 118 0.0 0.0 0.00 0.00 0.00 53 1012.7
20260906002008 83 120 0.0 0.0 0.00 0.00 0.00 53 1012.6
20260906001503 83 109 0.0 0.0 0.00 0.00 0.00 52 1012.6
20260906000957 83 109 0.0 0.0 0.00 0.00 0.00 53 1012.4
20260906000455 84 132 0.0 0.0 0.00 0.00 0.00 52 1012.3
20260905235948 84 129 0.0 0.0 0.00 0.00 0.00 52 1012.3
20260905235448 84 109 0.0 0.0 0.00 0.00 0.00 52 1012.0
20260905234943 84 155 0.9 0.9 0.00 0.00 0.00 52 1012.1
20260905234439 85 136 0.9 0.9 0.00 0.00 0.00 51 1011.9
20260905233938 85 349 3.5 5.2 0.00 0.00 0.00 50 1012.0
20260905233434 86 124 0.0 0.0 0.00 0.00 0.00 50 1012.1
20260905232932 86 114 0.0 0.9 0.00 0.00 0.00 50 1012.1
20260905232429 86 136 0.9 0.9 0.00 0.00 0.00 49 1012.0
20260905231924 87 164 0.9 0.9 0.00 0.00 0.00 48 1012.0
20260905231420 87 322 1.7 1.7 0.00 0.00 0.00 47 1011.9
20260905230916 88 104 0.0 0.0 0.00 0.00 0.00 48 1012.0
20260905230414 88 157 0.9 1.7 0.00 0.00 0.00 46 1012.2
20260905225913 88 320 2.6 3.5 0.00 0.00 0.00 45 1012.1
20260905225408 89 297 2.6 2.6 0.00 0.00 0.00 46 1012.1
20260905224903 90 12 1.7 2.6 0.00 0.00 0.00 44 1012.1
20260905224359 91 115 0.9 0.9 0.00 0.00 0.00 43 1012.0
20260905223854 91 150 1.7 1.7 0.00 0.00 0.00 45 1012.1
20260905223352 91 225 2.6 2.6 0.00 0.00 0.00 43 1012.3
20260905222851 92 155 1.7 1.7 0.00 0.00 0.00 43 1012.0
20260905222350 92 158 0.9 0.9 0.00 0.00 0.00 42 1011.8
20260905221847 92 10 3.5 3.5 0.00 0.00 0.00 42 1012.0
20260905221343 92 112 0.0 0.9 0.00 0.00 0.00 42 1012.0
20260905220839 92 238 1.7 2.6 0.00 0.00 0.00 43 1011.9
20260905220335 92 189 0.9 1.7 0.00 0.00 0.00 43 1011.8
20260905215834 93 218 1.7 1.7 0.00 0.00 0.00 41 1012.0
20260905215330 93 93 0.9 0.9 0.00 0.00 0.00 40 1011.9
20260905214826 92 93 1.7 1.7 0.00 0.00 0.00 41 1011.7
20260905214321 92 80 0.9 0.9 0.00 0.00 0.00 42 1011.7
20260905213816 92 61 0.9 1.7 0.00 0.00 0.00 43 1011.6
20260905213312 92 124 0.0 0.0 0.00 0.00 0.00 41 1011.5
20260905212813 92 69 2.6 3.5 0.00 0.00 0.00 41 1011.5
20260905212313 92 81 1.7 2.6 0.00 0.00 0.00 41 1011.5
20260905211813 91 86 2.6 2.6 0.00 0.00 0.00 42 1011.4
20260905211308 92 98 1.7 2.6 0.00 0.00 0.00 42 1011.5
20260905210804 91 109 0.9 0.9 0.00 0.00 0.00 41 1011.6
20260905210304 91 79 1.7 1.7 0.00 0.00 0.00 42 1011.4
20260905205803 91 105 0.9 0.9 0.00 0.00 0.00 41 1011.5
20260905205257 91 122 0.9 0.9 0.00 0.00 0.00 42 1011.7
20260905204757 91 67 1.7 1.7 0.00 0.00 0.00 42 1011.4
20260905204253 91 332 3.5 5.2 0.00 0.00 0.00 41 1011.6
20260905203752 91 108 0.9 0.9 0.00 0.00 0.00 41 1011.6
20260905203248 91 132 1.7 2.6 0.00 0.00 0.00 42 1011.6
20260905202743 91 329 3.5 5.2 0.00 0.00 0.00 39 1011.7
20260905202238 93 79 2.6 3.5 0.00 0.00 0.00 39 1011.7
20260905201733 92 78 0.9 1.7 0.00 0.00 0.00 40 1011.5
20260905201229 93 46 0.9 1.7 0.00 0.00 0.00 39 1011.6
20260905200723 93 50 3.5 6.1 0.00 0.00 0.00 38 1011.4
20260905200219 93 153 1.7 1.7 0.00 0.00 0.00 39 1011.3
20260905195717 93 101 0.9 1.7 0.00 0.00 0.00 39 1011.4
20260905195212 92 153 0.9 0.9 0.00 0.00 0.00 39 1011.4
20260905194708 94 346 5.2 6.1 0.00 0.00 0.00 37 1011.3
20260905194207 93 146 1.7 2.6 0.00 0.00 0.00 39 1011.2
20260905193701 93 140 1.7 2.6 0.00 0.00 0.00 37 1011.4
20260905193157 93 107 1.7 2.6 0.00 0.00 0.00 38 1011.2
20260905192652 92 95 2.6 3.5 0.00 0.00 0.00 38 1011.5
20260905192149 93 14 3.5 3.5 0.00 0.00 0.00 37 1011.8
20260905191648 93 189 1.7 1.7 0.00 0.00 0.00 38 1011.5
20260905191146 93 130 1.7 1.7 0.00 0.00 0.00 39 1011.7
20260905190645 92 76 2.6 3.5 0.00 0.00 0.00 38 1011.8
20260905190144 91 158 3.5 5.2 0.00 0.00 0.00 39 1012.1
20260905185643 92 16 3.5 5.2 0.00 0.00 0.00 39 1012.2
20260905185138 92 303 4.3 5.2 0.00 0.00 0.00 40 1012.4
20260905184637 91 296 6.1 7.8 0.00 0.00 0.00 39 1012.5
20260905184136 92 258 4.3 5.2 0.00 0.00 0.00 44 1012.7
20260905183636 91 66 2.6 3.5 0.00 0.00 0.00 43 1012.7
20260905183131 91 190 1.7 2.6 0.00 0.00 0.00 48 1012.8
20260905182631 90 114 0.9 1.7 0.00 0.00 0.00 49 1012.8
20260905182131 89 15 3.5 3.5 0.00 0.00 0.00 49 1013.0
20260905181626 88 191 0.9 0.9 0.00 0.00 0.00 51 1013.0
20260905181125 88 330 3.5 3.5 0.00 0.00 0.00 52 1013.0
20260905180620 89 4 4.3 6.1 0.00 0.00 0.00 49 1013.0
20260905180115 88 255 1.7 2.6 0.00 0.00 0.00 51 1013.1
20260905175614 87 299 1.7 2.6 0.00 0.00 0.00 51 1013.2
20260905175109 87 137 0.0 0.0 0.00 0.00 0.00 53 1013.2
20260905174605 86 206 2.6 2.6 0.00 0.00 0.00 52 1013.6
20260905174100 86 84 0.9 1.7 0.00 0.00 0.00 52 1013.3
20260905173557 86 268 1.7 1.7 0.00 0.00 0.00 52 1013.1
20260905173052 87 160 1.7 1.7 0.00 0.00 0.00 52 1013.1
20260905172550 87 84 1.7 1.7 0.00 0.00 0.00 52 1013.2
20260905172046 87 305 2.6 3.5 0.00 0.00 0.00 51 1013.0
20260905171542 87 253 3.5 3.5 0.00 0.00 0.00 49 1013.0
20260905171038 87 220 1.7 2.6 0.00 0.00 0.00 50 1013.0
20260905170535 87 198 2.6 2.6 0.00 0.00 0.00 52 1013.3
20260905170029 87 167 1.7 1.7 0.00 0.00 0.00 51 1013.5
20260905165524 86 184 0.9 1.7 0.00 0.00 0.00 53 1013.5
20260905165020 87 162 1.7 2.6 0.00 0.00 0.00 52 1013.7
20260905164520 87 309 4.3 6.1 0.00 0.00 0.00 52 1014.1
20260905164015 87 251 1.7 2.6 0.00 0.00 0.00 51 1014.0
20260905163511 87 99 0.9 0.9 0.00 0.00 0.00 52 1014.1
20260905163006 87 24 3.5 5.2 0.00 0.00 0.00 51 1014.1
20260905162502 86 152 1.7 2.6 0.00 0.00 0.00 55 1014.3
20260905161957 85 169 1.7 2.6 0.00 0.00 0.00 55 1014.3
20260905161456 86 321 2.6 2.6 0.00 0.00 0.00 54 1014.0
20260905160954 86 264 1.7 2.6 0.00 0.00 0.00 56 1014.0
20260905160448 86 160 0.0 0.9 0.00 0.00 0.00 54 1014.4
20260905155947 86 157 0.9 0.9 0.00 0.00 0.00 55 1014.7
20260905155443 87 327 2.6 3.5 0.00 0.00 0.00 52 1014.8
20260905154941 86 106 0.9 0.9 0.00 0.00 0.00 52 1014.6
20260905154436 85 87 1.7 1.7 0.00 0.00 0.00 54 1014.8
20260905153932 85 276 3.5 3.5 0.00 0.00 0.00 54 1015.2
20260905153428 84 33 2.6 5.2 0.00 0.00 0.00 56 1015.1
20260905152927 84 163 1.7 1.7 0.00 0.00 0.00 57 1015.0
20260905152427 84 129 0.0 0.9 0.00 0.00 0.00 61 1014.8
20260905151922 84 289 1.7 1.7 0.00 0.00 0.00 61 1015.1
20260905151418 84 142 0.9 0.9 0.00 0.00 0.00 61 1014.9
20260905150918 83 66 1.7 1.7 0.00 0.00 0.00 62 1015.0
20260905150413 84 108 0.9 1.7 0.00 0.00 0.00 61 1014.9
20260905145909 84 352 7.0 8.7 0.00 0.00 0.00 60 1015.0
20260905145404 85 57 3.5 7.8 0.00 0.00 0.00 62 1014.9
20260905144903 85 35 1.7 2.6 0.00 0.00 0.00 62 1014.7
20260905144359 85 105 0.9 0.9 0.00 0.00 0.00 61 1014.4
20260905143858 85 83 0.0 0.0 0.00 0.00 0.00 62 1014.3
20260905143352 85 133 0.9 0.9 0.00 0.00 0.00 61 1014.4
20260905142851 85 287 1.7 2.6 0.00 0.00 0.00 60 1014.6
20260905142350 86 148 0.9 0.9 0.00 0.00 0.00 60 1014.3
20260905141846 86 151 0.0 0.9 0.00 0.00 0.00 59 1014.3
20260905141341 86 143 0.9 1.7 0.00 0.00 0.00 60 1014.6
20260905140837 85 275 1.7 1.7 0.00 0.00 0.00 60 1014.1
20260905140337 85 254 1.7 1.7 0.00 0.00 0.00 60 1014.2
20260905135836 86 163 1.7 2.6 0.00 0.00 0.00 60 1014.1
20260905135332 86 171 0.9 1.7 0.00 0.00 0.00 60 1014.0
20260905134828 86 286 1.7 2.6 0.00 0.00 0.00 59 1014.2
20260905134326 85 275 3.5 3.5 0.00 0.00 0.00 60 1014.2
20260905133827 84 96 1.7 1.7 0.00 0.00 0.00 62 1014.3
20260905133322 83 290 1.7 1.7 0.00 0.00 0.00 63 1014.2
20260905132821 83 150 0.9 0.9 0.00 0.00 0.00 63 1014.3
20260905132317 82 133 0.0 0.9 0.00 0.00 0.00 65 1014.1
20260905131816 82 152 0.0 0.9 0.00 0.00 0.00 66 1014.0
20260905131312 82 266 1.7 3.5 0.00 0.00 0.00 66 1013.9
20260905130808 82 255 1.7 2.6 0.00 0.00 0.00 66 1014.0
20260905130306 81 187 0.9 1.7 0.00 0.00 0.00 66 1014.1
20260905125802 81 160 0.9 0.9 0.00 0.00 0.00 66 1014.0
20260905125256 81 170 1.7 1.7 0.00 0.00 0.00 66 1014.4
20260905124753 80 147 0.9 0.9 0.00 0.00 0.00 68 1014.2
20260905124248 80 297 1.7 1.7 0.00 0.00 0.00 69 1014.1
20260905123743 79 180 0.9 1.7 0.00 0.00 0.00 70 1014.0
20260905123241 79 129 0.9 0.9 0.00 0.00 0.00 71 1014.3
20260905122741 78 272 2.6 2.6 0.00 0.00 0.00 71 1014.1
20260905122240 78 269 1.7 1.7 0.00 0.00 0.00 72 1014.2
20260905121735 77 138 0.9 0.9 0.00 0.00 0.00 73 1014.3
20260905121232 77 141 0.0 0.9 0.00 0.00 0.00 74 1014.3